QPF
0.00 0.00 0.00 0.00 0.00 0.00 0.00 0.00 0.00 0.00 0.00 0.00 0.00 0.00 0.00 0.00 0.00 0.00 0.00 0.00 0.00 0.00 0.00 0.00 0.00 0.00 0.00 0.00 0.00 0.00 0.00 0.00 0.00 0.00 0.00 0.00 0.00 0.00 0.00 0.00 0.00 0.00 0.00 0.00
0.00 0.00 0.00 0.00 0.00 0.00 0.00 0.00 0.00 0.00 0.00 0.00 0.00 0.00 0.00 0.00 0.00 0.00 0.00 0.00 0.00 0.00 0.00 0.00 0.00 0.00 0.00 0.00 0.00 0.00 0.00 0.00 0.00 0.00 0.00 0.00 0.00 0.00 0.00 0.00 0.00 0.00 0.00 0.00
0.00 0.00 0.00 0.00 0.00 0.00 0.00 0.00 0.00 0.00 0.00 0.00 0.00 0.00 0.00 0.00 0.00 0.00 0.00 0.00 0.00 0.00 0.00 0.00 0.00 0.00 0.00 0.00 0.00 0.00 0.00 0.00 0.00 0.00 0.00 0.00 0.00 0.00 0.00 0.00 0.00 0.00 0.00 0.00
0.00 0.00 0.00 0.00 0.00 0.00 0.00 0.00 0.00 0.00 0.00 0.00 0.00 0.00 0.00 0.00 0.00 0.00 0.00 0.00 0.00 0.00 0.00 0.00 0.00 0.00 0.00 0.00 0.00 0.00 0.00 0.00 0.00 0.00 0.00 0.00 0.00 0.00 0.00 0.00 0.00 0.00 0.00 0.01
0.00 0.00 0.00 0.00 0.00 0.00 0.00 0.00 0.00 0.00 0.00 0.00 0.00 0.00 0.00 0.00 0.00 0.00 0.00 0.00 0.00 0.00 0.00 0.00 0.00 0.00 0.00 0.00 0.00 0.00 0.00 0.00 0.00 0.00 0.00 0.00 0.00 0.00 0.00 0.00 0.00 0.00 0.01 0.01
0.00 0.00 0.00 0.00 0.00 0.00 0.00 0.00 0.00 0.00 0.00 0.00 0.00 0.00 0.00 0.00 0.00 0.00 0.00 0.00 0.00 0.00 0.00 0.00 0.00 0.00 0.00 0.00 0.00 0.00 0.00 0.00 0.00 0.00 0.00 0.00 0.00 0.00 0.00 0.00 0.00 0.00 0.01 0.01
0.00 0.00 0.00 0.00 0.00 0.00 0.00 0.00 0.00 0.00 0.00 0.00 0.00 0.00 0.00 0.00 0.00 0.00 0.00 0.00 0.00 0.00 0.00 0.00 0.00 0.00 0.00 0.00 0.00 0.00 0.00 0.00 0.00 0.00 0.00 0.00 0.00 0.00 0.00 0.00 0.00 0.00 0.01 0.01
0.00 0.00 0.00 0.00 0.00 0.00 0.00 0.00 0.00 0.00 0.00 0.00 0.00 0.00 0.00 0.00 0.00 0.00 0.00 0.00 0.00 0.00 0.00 0.00 0.00 0.00 0.00 0.00 0.00 0.00 0.00 0.00 0.00 0.00 0.00 0.00 0.00 0.00 0.00 0.00 0.00 0.01 0.01 0.01
0.00 0.00 0.00 0.00 0.00 0.00 0.00 0.00 0.00 0.00 0.00 0.00 0.00 0.00 0.00 0.00 0.00 0.00 0.00 0.00 0.00 0.00 0.00 0.00 0.00 0.00 0.00 0.00 0.00 0.00 0.00 0.00 0.00 0.00 0.00 0.00 0.00 0.00 0.00 0.00 0.00 0.01 0.01 0.01
0.00 0.00 0.00 0.00 0.00 0.00 0.00 0.00 0.00 0.00 0.00 0.00 0.00 0.00 0.00 0.00 0.00 0.00 0.00 0.00 0.00 0.00 0.00 0.00 0.00 0.00 0.00 0.00 0.00 0.00 0.00 0.00 0.00 0.00 0.00 0.00 0.00 0.00 0.00 0.00 0.01 0.01 0.01 0.01
0.00 0.00 0.00 0.00 0.00 0.00 0.00 0.00 0.00 0.00 0.00 0.00 0.00 0.00 0.00 0.00 0.00 0.00 0.00 0.00 0.00 0.00 0.00 0.00 0.00 0.00 0.00 0.00 0.00 0.00 0.00 0.00 0.00 0.00 0.00 0.00 0.00 0.00 0.00 0.01 0.01 0.01 0.01 0.01
0.00 0.00 0.00 0.00 0.00 0.00 0.00 0.00 0.00 0.00 0.00 0.00 0.00 0.00 0.00 0.00 0.00 0.00 0.00 0.00 0.00 0.00 0.00 0.00 0.00 0.00 0.00 0.00 0.00 0.00 0.00 0.00 0.00 0.00 0.00 0.00 0.00 0.00 0.00 0.01 0.01 0.01 0.01 0.01
0.00 0.00 0.00 0.00 0.00 0.00 0.00 0.00 0.00 0.00 0.00 0.00 0.00 0.00 0.00 0.00 0.00 0.00 0.00 0.00 0.00 0.00 0.00 0.00 0.00 0.00 0.00 0.00 0.00 0.00 0.00 0.00 0.00 0.00 0.00 0.00 0.00 0.01 0.01 0.01 0.01 0.01 0.01 0.01
0.00 0.00 0.00 0.00 0.00 0.00 0.00 0.00 0.00 0.00 0.00 0.00 0.00 0.00 0.00 0.00 0.00 0.00 0.00 0.00 0.00 0.00 0.00 0.00 0.00 0.00 0.00 0.00 0.00 0.00 0.00 0.00 0.00 0.00 0.00 0.00 0.01 0.01 0.01 0.01 0.01 0.01 0.01 0.01
0.00 0.00 0.00 0.00 0.00 0.00 0.00 0.00 0.00 0.00 0.00 0.00 0.00 0.00 0.00 0.00 0.00 0.00 0.00 0.00 0.00 0.00 0.00 0.00 0.00 0.00 0.00 0.00 0.00 0.00 0.00 0.00 0.00 0.00 0.00 0.01 0.01 0.01 0.01 0.01 0.01 0.01 0.02 0.02
0.00 0.00 0.00 0.00 0.00 0.00 0.00 0.00 0.00 0.00 0.00 0.00 0.00 0.00 0.00 0.00 0.00 0.00 0.00 0.00 0.00 0.00 0.00 0.00 0.00 0.00 0.00 0.00 0.00 0.00 0.00 0.00 0.01 0.01 0.01 0.01 0.01 0.01 0.01 0.02 0.02 0.02 0.02 0.02
0.00 0.00 0.00 0.00 0.00 0.00 0.00 0.00 0.00 0.00 0.00 0.00 0.00 0.00 0.00 0.00 0.00 0.00 0.00 0.00 0.00 0.00 0.00 0.00 0.00 0.00 0.00 0.00 0.00 0.01 0.01 0.01 0.01 0.01 0.01 0.01 0.01 0.02 0.02 0.02 0.02 0.02 0.02 0.02
0.00 0.00 0.00 0.01 0.01 0.01 0.00 0.00 0.00 0.00 0.00 0.00 0.00 0.00 0.00 0.00 0.00 0.00 0.00 0.00 0.00 0.00 0.00 0.00 0.00 0.00 0.00 0.00 0.01 0.01 0.01 0.01 0.01 0.01 0.01 0.01 0.02 0.02 0.03 0.03 0.03 0.03 0.03 0.03
0.00 0.01 0.01 0.01 0.01 0.01 0.00 0.00 0.00 0.00 0.00 0.00 0.00 0.00 0.00 0.00 0.00 0.00 0.00 0.00 0.00 0.00 0.00 0.00 0.00 0.00 0.00 0.01 0.01 0.01 0.01 0.01 0.01 0.01 0.02 0.02 0.03 0.03 0.03 0.03 0.03 0.03 0.03 0.03
0.01 0.01 0.01 0.00 0.00 0.00 0.00 0.00 0.00 0.00 0.00 0.00 0.01 0.01 0.00 0.00 0.00 0.00 0.00 0.00 0.00 0.00 0.00 0.00 0.00 0.00 0.01 0.01 0.01 0.01 0.02 0.02 0.02 0.02 0.03 0.03 0.04 0.04 0.03 0.03 0.03 0.03 0.03 0.02
0.00 0.00 0.00 0.00 0.00 0.00 0.00 0.00 0.00 0.00 0.01 0.00 0.00 0.00 0.00 0.00 0.00 0.00 0.00 0.00 0.00 0.00 0.00 0.00 0.01 0.01 0.01 0.01 0.02 0.02 0.02 0.02 0.03 0.03 0.03 0.04 0.04 0.04 0.03 0.03 0.03 0.03 0.03 0.02
0.00 0.00 0.00 0.00 0.00 0.00 0.00 0.00 0.00 0.00 0.00 0.00 0.00 0.00 0.00 0.00 0.00 0.00 0.00 0.00 0.00 0.00 0.00 0.00 0.01 0.01 0.02 0.02 0.01 0.02 0.02 0.02 0.03 0.03 0.03 0.04 0.04 0.04 0.03 0.03 0.03 0.03 0.02 0.02
0.00 0.00 0.00 0.00 0.00 0.00 0.00 0.00 0.00 0.00 0.00 0.00 0.00 0.00 0.00 0.00 0.00 0.00 0.00 0.00 0.00 0.01 0.01 0.01 0.01 0.02 0.02 0.02 0.02 0.02 0.02 0.02 0.03 0.03 0.04 0.04 0.04 0.03 0.03 0.03 0.03 0.03 0.02 0.02
0.00 0.00 0.00 0.00 0.00 0.00 0.00 0.00 0.00 0.00 0.00 0.00 0.00 0.00 0.00 0.00 0.00 0.00 0.00 0.00 0.01 0.01 0.01 0.01 0.02 0.02 0.02 0.02 0.02 0.02 0.02 0.02 0.03 0.03 0.04 0.04 0.03 0.03 0.03 0.03 0.03 0.03 0.03 0.02
0.00 0.00 0.00 0.00 0.00 0.00 0.00 0.00 0.00 0.00 0.00 0.00 0.00 0.00 0.00 0.00 0.00 0.00 0.00 0.00 0.00 0.01 0.01 0.01 0.02 0.02 0.02 0.02 0.02 0.02 0.02 0.02 0.03 0.04 0.04 0.03 0.03 0.03 0.03 0.03 0.03 0.03 0.02 0.02
0.00 0.00 0.00 0.00 0.00 0.00 0.00 0.00 0.00 0.00 0.00 0.00 0.00 0.00 0.00 0.00 0.00 0.00 0.00 0.00 0.01 0.01 0.01 0.01 0.02 0.02 0.02 0.02 0.02 0.02 0.02 0.03 0.04 0.03 0.03 0.03 0.03 0.03 0.03 0.03 0.03 0.02 0.02 0.02
0.00 0.00 0.00 0.00 0.00 0.00 0.00 0.00 0.00 0.00 0.00 0.00 0.00 0.00 0.00 0.00 0.00 0.00 0.01 0.01 0.01 0.01 0.01 0.01 0.02 0.02 0.02 0.02 0.02 0.03 0.03 0.03 0.03 0.03 0.02 0.02 0.03 0.03 0.03 0.03 0.02 0.02 0.02 0.02
MSLP
1018.57 1018.27 1017.92 1017.49 1016.99 1016.40 1015.73 1015.00 1014.24 1013.48 1012.75 1012.11 1011.58 1011.17 1010.88 1010.66 1010.48 1010.29 1010.05 1009.72 1009.29 1008.77 1008.18 1007.57 1006.97 1006.44 1005.99 1005.64 1005.39 1005.22 1005.08 1004.97 1004.85 1004.72 1004.58 1004.44 1004.35 1004.31 1004.36 1004.50 1004.75 1005.08 1005.50 1005.98
1018.28 1017.85 1017.35 1016.78 1016.17 1015.52 1014.84 1014.16 1013.49 1012.87 1012.31 1011.84 1011.46 1011.17 1010.95 1010.76 1010.58 1010.36 1010.07 1009.68 1009.21 1008.66 1008.05 1007.43 1006.83 1006.28 1005.80 1005.40 1005.07 1004.78 1004.53 1004.28 1004.04 1003.79 1003.55 1003.34 1003.18 1003.09 1003.10 1003.21 1003.42 1003.73 1004.12 1004.57
1017.96 1017.41 1016.78 1016.10 1015.40 1014.70 1014.02 1013.39 1012.82 1012.33 1011.92 1011.60 1011.34 1011.14 1010.97 1010.80 1010.59 1010.32 1009.98 1009.55 1009.04 1008.47 1007.87 1007.26 1006.67 1006.13 1005.63 1005.19 1004.78 1004.40 1004.02 1003.65 1003.27 1002.90 1002.55 1002.24 1002.01 1001.87 1001.84 1001.92 1002.10 1002.38 1002.74 1003.17
1017.60 1016.95 1016.22 1015.45 1014.69 1013.97 1013.31 1012.74 1012.27 1011.89 1011.61 1011.40 1011.23 1011.09 1010.94 1010.75 1010.51 1010.18 1009.78 1009.30 1008.76 1008.18 1007.59 1007.01 1006.45 1005.92 1005.42 1004.94 1004.48 1004.01 1003.52 1003.03 1002.53 1002.03 1001.58 1001.19 1000.88 1000.69 1000.62 1000.67 1000.83 1001.09 1001.43 1001.83
1017.15 1016.42 1015.63 1014.83 1014.05 1013.35 1012.73 1012.23 1011.85 1011.57 1011.38 1011.25 1011.14 1011.03 1010.86 1010.64 1010.34 1009.95 1009.48 1008.95 1008.38 1007.80 1007.22 1006.67 1006.13 1005.63 1005.14 1004.64 1004.13 1003.59 1003.02 1002.42 1001.81 1001.22 1000.67 1000.21 999.85 999.61 999.51 999.53 999.68 999.92 1000.24 1000.62
1016.57 1015.82 1015.02 1014.22 1013.48 1012.83 1012.29 1011.87 1011.57 1011.38 1011.26 1011.17 1011.08 1010.95 1010.76 1010.48 1010.10 1009.64 1009.11 1008.53 1007.94 1007.35 1006.79 1006.25 1005.75 1005.27 1004.79 1004.28 1003.74 1003.15 1002.51 1001.84 1001.15 1000.48 999.87 999.34 998.94 998.68 998.55 998.56 998.68 998.90 999.20 999.55
1015.87 1015.13 1014.37 1013.64 1012.98 1012.42 1011.98 1011.65 1011.44 1011.31 1011.23 1011.16 1011.05 1010.89 1010.64 1010.28 1009.83 1009.30 1008.71 1008.08 1007.47 1006.87 1006.32 1005.81 1005.33 1004.87 1004.39 1003.89 1003.33 1002.70 1002.02 1001.29 1000.55 999.83 999.18 998.62 998.19 997.90 997.76 997.75 997.86 998.06 998.32 998.64
1015.07 1014.39 1013.72 1013.10 1012.57 1012.13 1011.80 1011.57 1011.43 1011.34 1011.28 1011.20 1011.06 1010.83 1010.51 1010.08 1009.55 1008.95 1008.31 1007.65 1007.01 1006.42 1005.87 1005.38 1004.91 1004.46 1004.00 1003.49 1002.92 1002.27 1001.56 1000.81 1000.04 999.30 998.62 998.04 997.60 997.29 997.13 997.11 997.19 997.35 997.58 997.85
1014.24 1013.65 1013.12 1012.64 1012.26 1011.96 1011.75 1011.61 1011.53 1011.47 1011.39 1011.27 1011.08 1010.78 1010.38 1009.88 1009.28 1008.63 1007.95 1007.27 1006.62 1006.03 1005.49 1005.00 1004.54 1004.10 1003.63 1003.11 1002.53 1001.87 1001.15 1000.39 999.61 998.86 998.17 997.59 997.13 996.81 996.63 996.57 996.62 996.75 996.92 997.14
1013.45 1013.00 1012.62 1012.31 1012.08 1011.93 1011.82 1011.76 1011.71 1011.65 1011.54 1011.36 1011.10 1010.72 1010.25 1009.68 1009.04 1008.36 1007.65 1006.96 1006.31 1005.72 1005.18 1004.69 1004.23 1003.77 1003.29 1002.76 1002.16 1001.50 1000.77 1000.00 999.23 998.48 997.79 997.20 996.74 996.40 996.19 996.10 996.10 996.17 996.29 996.45
1012.83 1012.52 1012.29 1012.15 1012.07 1012.03 1012.01 1011.99 1011.94 1011.85 1011.69 1011.44 1011.10 1010.65 1010.11 1009.50 1008.82 1008.12 1007.41 1006.72 1006.07 1005.48 1004.93 1004.43 1003.95 1003.47 1002.96 1002.40 1001.78 1001.10 1000.37 999.60 998.83 998.09 997.41 996.82 996.34 995.98 995.74 995.60 995.54 995.56 995.62 995.72
1012.44 1012.26 1012.18 1012.17 1012.20 1012.25 1012.27 1012.26 1012.19 1012.04 1011.81 1011.48 1011.06 1010.54 1009.95 1009.30 1008.61 1007.90 1007.19 1006.51 1005.87 1005.26 1004.70 1004.17 1003.64 1003.12 1002.56 1001.96 1001.31 1000.61 999.87 999.10 998.34 997.61 996.94 996.35 995.86 995.48 995.20 995.02 994.91 994.87 994.88 994.93
1012.31 1012.25 1012.29 1012.37 1012.47 1012.55 1012.58 1012.54 1012.41 1012.19 1011.87 1011.46 1010.96 1010.38 1009.75 1009.08 1008.38 1007.67 1006.98 1006.30 1005.64 1005.02 1004.42 1003.84 1003.25 1002.66 1002.04 1001.39 1000.69 999.96 999.21 998.44 997.69 996.98 996.32 995.74 995.25 994.85 994.54 994.32 994.17 994.08 994.05 994.06
1012.43 1012.46 1012.56 1012.69 1012.81 1012.88 1012.87 1012.77 1012.56 1012.25 1011.85 1011.35 1010.79 1010.16 1009.50 1008.82 1008.12 1007.41 1006.72 1006.03 1005.36 1004.69 1004.03 1003.38 1002.71 1002.04 1001.34 1000.61 999.87 999.10 998.34 997.58 996.84 996.15 995.52 994.96 994.47 994.08 993.76 993.52 993.34 993.23 993.17 993.16
1012.75 1012.82 1012.94 1013.08 1013.17 1013.18 1013.10 1012.92 1012.62 1012.21 1011.72 1011.16 1010.54 1009.88 1009.20 1008.50 1007.80 1007.09 1006.39 1005.68 1004.96 1004.24 1003.50 1002.76 1002.00 1001.22 1000.43 999.64 998.84 998.04 997.26 996.51 995.80 995.14 994.55 994.02 993.57 993.19 992.88 992.64 992.47 992.35 992.29 992.29
1013.16 1013.24 1013.35 1013.43 1013.46 1013.39 1013.22 1012.94 1012.55 1012.06 1011.49 1010.87 1010.21 1009.53 1008.83 1008.13 1007.42 1006.70 1005.97 1005.22 1004.45 1003.65 1002.83 1001.98 1001.12 1000.25 999.37 998.50 997.65 996.83 996.05 995.31 994.64 994.02 993.47 993.00 992.59 992.25 991.98 991.77 991.62 991.52 991.48 991.50
1013.59 1013.64 1013.69 1013.70 1013.64 1013.47 1013.20 1012.82 1012.35 1011.79 1011.16 1010.50 1009.82 1009.12 1008.41 1007.70 1006.98 1006.24 1005.48 1004.68 1003.84 1002.96 1002.05 1001.11 1000.15 999.19 998.23 997.31 996.42 995.58 994.80 994.10 993.46 992.90 992.41 991.99 991.65 991.36 991.14 990.98 990.87 990.82 990.82 990.88
1013.93 1013.93 1013.91 1013.83 1013.66 1013.40 1013.03 1012.57 1012.02 1011.41 1010.75 1010.07 1009.36 1008.66 1007.95 1007.23 1006.49 1005.72 1004.92 1004.07 1003.16 1002.21 1001.22 1000.20 999.17 998.14 997.14 996.18 995.27 994.44 993.68 993.00 992.40 991.89 991.47 991.11 990.83 990.61 990.45 990.35 990.30 990.30 990.36 990.46
1014.15 1014.08 1013.97 1013.79 1013.53 1013.18 1012.73 1012.20 1011.60 1010.95 1010.27 1009.57 1008.87 1008.16 1007.44 1006.71 1005.96 1005.16 1004.32 1003.42 1002.47 1001.47 1000.43 999.37 998.30 997.24 996.22 995.25 994.35 993.53 992.80 992.16 991.61 991.15 990.77 990.47 990.25 990.09 989.99 989.95 989.96 990.02 990.13 990.29
1014.21 1014.07 1013.88 1013.62 1013.27 1012.84 1012.32 1011.75 1011.11 1010.45 1009.76 1009.06 1008.35 1007.64 1006.91 1006.17 1005.39 1004.57 1003.71 1002.78 1001.81 1000.79 999.74 998.67 997.60 996.56 995.56 994.62 993.76 992.97 992.28 991.67 991.16 990.73 990.40 990.14 989.96 989.84 989.79 989.80 989.87 989.99 990.15 990.36
1014.13 1013.93 1013.67 1013.33 1012.91 1012.42 1011.86 1011.25 1010.60 1009.92 1009.23 1008.53 1007.82 1007.10 1006.37 1005.61 1004.81 1003.98 1003.10 1002.17 1001.20 1000.20 999.17 998.14 997.13 996.15 995.21 994.33 993.52 992.79 992.14 991.57 991.09 990.69 990.37 990.13 989.97 989.88 989.86 989.91 990.01 990.17 990.38 990.62
1013.92 1013.67 1013.35 1012.95 1012.49 1011.96 1011.37 1010.74 1010.08 1009.40 1008.71 1008.01 1007.29 1006.56 1005.81 1005.04 1004.23 1003.39 1002.51 1001.59 1000.65 999.70 998.74 997.79 996.87 995.98 995.13 994.35 993.62 992.95 992.36 991.83 991.36 990.97 990.66 990.42 990.27 990.18 990.17 990.24 990.36 990.55 990.78 991.04
1013.60 1013.31 1012.95 1012.52 1012.03 1011.47 1010.87 1010.24 1009.58 1008.90 1008.21 1007.50 1006.77 1006.03 1005.26 1004.47 1003.64 1002.80 1001.93 1001.05 1000.16 999.28 998.41 997.57 996.76 996.00 995.28 994.60 993.97 993.38 992.84 992.35 991.92 991.53 991.21 990.96 990.79 990.70 990.68 990.74 990.88 991.07 991.31 991.58
1013.18 1012.87 1012.49 1012.04 1011.53 1010.98 1010.38 1009.76 1009.10 1008.43 1007.73 1007.02 1006.28 1005.51 1004.72 1003.91 1003.08 1002.23 1001.38 1000.54 999.71 998.92 998.15 997.44 996.76 996.13 995.54 994.99 994.46 993.97 993.50 993.05 992.64 992.26 991.94 991.68 991.48 991.37 991.34 991.38 991.51 991.69 991.93 992.20
1012.67 1012.35 1011.96 1011.51 1011.01 1010.47 1009.89 1009.28 1008.64 1007.98 1007.29 1006.57 1005.81 1005.03 1004.22 1003.39 1002.54 1001.70 1000.87 1000.06 999.30 998.59 997.93 997.33 996.79 996.29 995.84 995.40 995.00 994.59 994.20 993.81 993.43 993.08 992.76 992.48 992.28 992.14 992.09 992.11 992.22 992.39 992.61 992.86
1012.05 1011.74 1011.36 1010.93 1010.46 1009.94 1009.40 1008.82 1008.20 1007.56 1006.88 1006.16 1005.40 1004.60 1003.77 1002.92 1002.07 1001.22 1000.41 999.64 998.93 998.29 997.72 997.23 996.80 996.42 996.09 995.78 995.48 995.17 994.86 994.54 994.21 993.89 993.58 993.32 993.11 992.96 992.89 992.90 992.98 993.12 993.32 993.54
1011.36 1011.06 1010.71 1010.31 1009.87 1009.40 1008.89 1008.36 1007.78 1007.17 1006.51 1005.80 1005.04 1004.24 1003.40 1002.54 1001.68 1000.84 1000.03 999.28 998.61 998.02 997.52 997.11 996.78 996.50 996.27 996.07 995.87 995.66 995.43 995.18 994.92 994.65 994.38 994.14 993.94 993.80 993.72 993.71 993.76 993.88 994.04 994.23
Thickness
5631 5632 5622 5618 5622 5621 5611 5613 5611 5627 5631 5637 5631 5622 5617 5615 5612 5608 5605 5602 5600 5599 5598 5598 5597 5594 5590 5585 5580 5572 5565 5560 5556 5550 5543 5536 5528 5520 5510 5501 5491 5480 5469 5459
5617 5620 5612 5610 5621 5623 5619 5616 5613 5616 5618 5623 5614 5609 5605 5603 5601 5596 5593 5591 5589 5587 5585 5583 5581 5578 5575 5572 5567 5560 5554 5550 5545 5538 5532 5525 5518 5510 5502 5493 5483 5472 5462 5452
5611 5606 5599 5611 5629 5626 5620 5619 5616 5615 5619 5610 5603 5597 5594 5592 5590 5585 5582 5580 5577 5575 5572 5568 5566 5562 5559 5555 5551 5546 5541 5537 5532 5527 5521 5515 5509 5501 5494 5485 5476 5467 5457 5447
5594 5592 5587 5632 5632 5622 5617 5618 5614 5606 5602 5596 5591 5588 5586 5584 5579 5574 5571 5568 5565 5562 5559 5555 5551 5547 5543 5538 5535 5532 5529 5526 5522 5517 5512 5507 5500 5494 5487 5478 5469 5460 5451 5442
5580 5590 5605 5621 5620 5610 5603 5608 5606 5596 5590 5587 5583 5582 5584 5577 5567 5561 5558 5555 5551 5548 5544 5541 5538 5534 5529 5527 5526 5524 5521 5518 5514 5509 5504 5499 5493 5487 5479 5471 5463 5454 5444 5435
5573 5565 5584 5619 5606 5596 5590 5593 5591 5583 5578 5575 5570 5567 5574 5563 5555 5551 5546 5542 5538 5535 5532 5530 5527 5522 5517 5517 5517 5516 5513 5509 5504 5500 5496 5491 5486 5479 5471 5462 5454 5445 5436 5427
5569 5566 5590 5605 5588 5581 5577 5585 5576 5571 5566 5562 5556 5552 5553 5549 5543 5537 5532 5528 5525 5522 5520 5518 5514 5509 5507 5508 5508 5506 5501 5497 5493 5490 5486 5481 5476 5469 5461 5452 5443 5435 5426 5418
5565 5561 5575 5590 5575 5574 5577 5572 5564 5559 5554 5548 5545 5541 5537 5532 5528 5523 5520 5517 5513 5511 5509 5504 5499 5497 5499 5499 5497 5493 5489 5486 5483 5479 5475 5469 5463 5457 5449 5441 5432 5424 5416 5408
5574 5582 5588 5574 5571 5568 5559 5554 5551 5545 5539 5533 5529 5526 5522 5517 5514 5511 5507 5505 5502 5499 5496 5493 5490 5487 5487 5488 5485 5481 5478 5475 5472 5468 5463 5457 5451 5445 5438 5430 5422 5414 5406 5399
5567 5579 5574 5566 5558 5553 5546 5540 5535 5528 5523 5517 5513 5510 5506 5503 5501 5498 5495 5492 5489 5485 5484 5484 5481 5478 5476 5475 5472 5469 5466 5464 5461 5457 5453 5447 5440 5434 5427 5420 5412 5404 5396 5389
5558 5563 5559 5557 5545 5538 5532 5525 5519 5513 5506 5500 5495 5492 5490 5488 5487 5484 5481 5478 5474 5470 5471 5472 5472 5470 5467 5464 5461 5458 5455 5452 5450 5445 5441 5436 5430 5423 5417 5410 5402 5394 5387 5380
5551 5551 5542 5542 5530 5520 5513 5507 5500 5494 5489 5484 5479 5476 5475 5473 5471 5468 5466 5464 5462 5461 5461 5463 5462 5460 5458 5454 5450 5446 5444 5441 5438 5434 5429 5423 5419 5414 5407 5399 5392 5384 5377 5369
5533 5531 5523 5518 5510 5500 5493 5487 5481 5475 5470 5466 5465 5461 5459 5457 5455 5453 5452 5452 5452 5452 5451 5451 5451 5450 5448 5445 5439 5435 5432 5430 5427 5422 5418 5413 5408 5403 5399 5392 5384 5377 5369 5362
5508 5503 5502 5496 5488 5481 5474 5468 5463 5458 5455 5452 5450 5447 5445 5444 5444 5442 5442 5442 5442 5442 5441 5442 5442 5441 5439 5435 5430 5426 5423 5421 5416 5413 5409 5404 5399 5393 5387 5382 5377 5371 5364 5357
5487 5480 5477 5473 5467 5461 5456 5451 5448 5446 5444 5442 5439 5436 5434 5433 5433 5433 5433 5433 5433 5433 5433 5432 5431 5431 5429 5425 5421 5418 5416 5413 5410 5406 5401 5396 5390 5384 5378 5372 5367 5362 5356 5349
5466 5461 5457 5453 5449 5445 5441 5437 5434 5433 5432 5430 5429 5427 5424 5422 5423 5425 5426 5425 5423 5423 5422 5421 5421 5421 5419 5416 5413 5412 5410 5406 5402 5399 5394 5389 5383 5376 5371 5365 5359 5353 5347 5341
5444 5443 5440 5436 5433 5430 5426 5422 5419 5419 5418 5418 5418 5417 5415 5415 5418 5420 5419 5417 5413 5412 5412 5413 5414 5413 5410 5408 5406 5405 5403 5401 5396 5391 5387 5382 5376 5370 5364 5357 5351 5345 5339 5333
5428 5424 5420 5416 5414 5413 5412 5410 5409 5407 5407 5407 5406 5407 5408 5408 5408 5409 5408 5408 5407 5407 5408 5407 5406 5404 5403 5402 5399 5398 5396 5393 5389 5385 5381 5376 5370 5363 5357 5350 5344 5338 5332 5327
5413 5409 5406 5403 5401 5399 5399 5399 5399 5399 5399 5399 5399 5399 5398 5397 5397 5398 5398 5398 5399 5402 5404 5401 5399 5398 5398 5397 5394 5392 5390 5387 5383 5379 5374 5369 5364 5358 5351 5344 5338 5332 5327 5321
5401 5399 5397 5396 5393 5389 5389 5391 5392 5394 5393 5390 5388 5389 5390 5390 5389 5389 5390 5390 5392 5394 5395 5394 5393 5394 5393 5392 5389 5387 5384 5380 5376 5373 5368 5363 5358 5353 5346 5339 5333 5327 5322 5317
5392 5390 5387 5387 5387 5387 5386 5385 5385 5385 5384 5381 5379 5379 5380 5381 5381 5382 5384 5389 5392 5390 5389 5388 5388 5388 5387 5386 5384 5382 5378 5374 5371 5366 5362 5358 5352 5347 5341 5334 5328 5323 5318 5313
5384 5384 5383 5382 5381 5382 5381 5378 5376 5375 5374 5374 5373 5372 5372 5375 5377 5379 5379 5380 5384 5383 5382 5383 5383 5383 5382 5381 5379 5376 5373 5369 5365 5361 5357 5352 5347 5342 5336 5330 5324 5319 5314 5309
5379 5377 5376 5374 5373 5372 5372 5370 5368 5367 5367 5367 5366 5366 5367 5368 5370 5371 5377 5379 5377 5377 5377 5378 5379 5379 5378 5375 5373 5370 5367 5364 5360 5356 5351 5347 5342 5337 5332 5326 5321 5316 5311 5307
5371 5370 5367 5364 5362 5361 5363 5366 5363 5361 5360 5359 5360 5360 5359 5363 5367 5368 5369 5371 5371 5372 5373 5374 5375 5375 5373 5370 5368 5365 5362 5358 5354 5350 5346 5341 5337 5332 5327 5323 5318 5313 5309 5304
5362 5359 5356 5354 5354 5357 5358 5358 5357 5357 5357 5359 5359 5359 5358 5358 5360 5363 5364 5366 5367 5368 5369 5371 5371 5370 5367 5365 5363 5360 5357 5353 5349 5345 5341 5336 5332 5328 5323 5319 5315 5311 5307 5302
5353 5352 5352 5350 5348 5348 5349 5349 5350 5351 5351 5354 5356 5356 5355 5355 5356 5358 5360 5362 5362 5364 5365 5366 5366 5365 5364 5361 5359 5356 5352 5349 5345 5341 5337 5333 5329 5325 5321 5317 5312 5309 5304 5300
5347 5346 5346 5346 5347 5345 5343 5342 5342 5344 5344 5345 5348 5350 5350 5351 5353 5354 5355 5357 5359 5360 5361 5362 5362 5361 5359 5358 5355 5352 5348 5345 5342 5338 5334 5330 5326 5322 5318 5314 5311 5306 5302 5297